Location: Asheville, NC
(35.6000°N, 82.5500°W)
Time: 20:40:00
(UTC-04:00)

Vanguard 1 Rocket - Pass Details

Date: 13 December 2017
Orbit: 653 x 4224 km, 34.3° (Epoch: 22 June)

Event Time Altitude Azimuth Distance (km) Brightness Sun altitude
Rises 14:59:05 0° 197° (SSW) 3,576 11.7 20.8°
Reaches altitude 10° 15:01:52 10° 180° (S) 2,945 11.0 20.4°
Maximum altitude 15:07:20 22° 131° (SE) 2,785 10.0 19.7°
Drops below altitude 10° 15:15:38 10° 86° (E) 4,695 10.7 18.6°
Sets 15:21:41 0° 75° (ENE) 6,420 11.2 17.8°
